[[{"header":{"parameterUnit":"m.s-1","parameterCategory":1,"la1":30.2991,"la2":30.254,"lo1":-89.0895,"lo2":-89.0444,"dy":0.0017,"dx":0.0017,"nx":28,"ny":28,"refTime":"2024-12-08T09:00:00:Z","depth":0,"parameterNumber":2,"parameterNumberName":"U-component_of_WINDS"},"data":[0,0,0,0,0,0,0,0,0,0,0,0,0,0,0,0,0,0,0,0,0,0,0,0,0,0,0,0,0,0,0,0,0,0,0,0,0,0,0,0,0,0,0,0,0,0,0,0,0,0,0,0,0,0,0,0,0,0,0.9283,0.9283,0,0.9312,0.9312,0.9312,0.9302,0.9302,0.9301,0.93,0.9331,0.9332,0.9333,0,0,0,0,0,0,0,0,0,0,0,0,0,0.9221,0.9222,0.9283,0.9283,0.9284,0.9312,0.9312,0.9312,0.9302,0.9302,0.9301,0.93,0.933,0.9332,0.9334,0,0,0,0,0,0,0,0,0,0,0,0,0,0.9249,0.9223,0.9283,0.9282,0.9282,0.9311,0.9312,0.9312,0.9302,0.9302,0.9301,0.93,0.933,0.9332,0.9334,0.9366,0,0,0.934,0.9341,0,0,0,0,0,0,0,0,0.9247,0.9251,0.9282,0.9282,0.9282,0.9302,0.9301,0.933,0.9303,0.9295,0.93,0.9299,0.9322,0.9325,0.9332,0.9367,0.9369,0.934,0.9342,0.9343,0.9343,0,0,0,0,0,0,0,0.9245,0.925,0.9294,0.9282,0.9283,0.9281,0.9284,0.9307,0.9314,0.9295,0.9295,0.9298,0.9322,0.933,0.9333,0.9369,0.934,0.9342,0.9344,0.9344,0.9434,0.9435,0,0,0,0,0,0,0.9243,0.9248,0.9293,0.9295,0.9262,0.9283,0.9286,0.9297,0.9313,0.9315,0.9299,0.9298,0.9327,0.933,0.9334,0.9374,0.9343,0.9345,0.9346,0.9433,0.9434,0.9435,0,0,0,0,0,0,0.9242,0.9247,0.9292,0.9272,0.9277,0.9285,0.9297,0.9298,0.9306,0.9316,0.9317,0.9306,0.9327,0.9331,0.9358,0.9375,0.9346,0.9347,0.9431,0.9433,0.9435,0.9454,0,0,0,0,0,0,0.924,0.9247,0.9259,0.9272,0.9278,0.9316,0.9298,0.9299,0.931,0.9308,0.9323,0.9324,0.9326,0.9355,0.9361,0.9377,0.9349,0.943,0.9432,0.9434,0.9452,0.9456,0.946,0,0,0,0,0,0.9238,0.9263,0.9259,0.9265,0.9293,0.9317,0.932,0.9322,0.9311,0.9324,0.933,0.9324,0.9372,0.9358,0.9364,0.9382,0.9429,0.9432,0.9434,0.945,0.9455,0.946,0,0,0,0,0,0,0.9251,0.9264,0.9261,0.929,0.9303,0.9315,0.9331,0.9327,0.9342,0.934,0.9341,0.9345,0.9373,0.938,0.9364,0.9415,0.9399,0.9403,0.9409,0.9414,0.9418,0.9417,0.9351,0,0,0,0,0,0.9258,0.9275,0.9286,0.9311,0.9317,0.9323,0.9333,0.9333,0.9346,0.9351,0.9359,0.9372,0.9391,0.9402,0.942,0.9452,0.9456,0.9468,0.9471,0.9475,0.9478,0.9498,0.9504,0.9444,0.9444,0.9444,0,0,0.9271,0.928,0.9291,0.9314,0.9323,0.9343,0.9327,0.9348,0.9362,0.9354,0.9381,0.9388,0.9402,0.9433,0.9447,0.9439,0.9496,0.9478,0.948,0.9482,0.9501,0.9507,0.9512,0.9445,0.9445,0.9445,0,0,0.9306,0.9314,0.9337,0.9346,0.9361,0.9365,0.937,0.9383,0.9388,0.9414,0.9409,0.9426,0.9457,0.9468,0.9478,0.9518,0.9514,0.9523,0.9544,0.9563,0.9568,0.9572,0.9588,0.9594,0.9527,0.9527,0.9527,0,0.9321,0.9349,0.9349,0.937,0.9381,0.9374,0.9398,0.9408,0.9427,0.9435,0.9426,0.9466,0.9475,0.9509,0.9519,0.9526,0.9534,0.9522,0.9567,0.9572,0.9576,0.9591,0.9597,0.9528,0.9528,0.9528,0.9528,0,0.9368,0.9387,0.9404,0.9423,0.9436,0.9458,0.9462,0.9475,0.9474,0.9479,0.9507,0.9518,0.9538,0.9546,0.9544,0.958,0.9575,0.9567,0.9552,0.9583,0.9597,0.9603,0.953,0.9529,0.9529,0.9529,0,0,0.9412,0.9431,0.9438,0.9447,0.9463,0.9478,0.9501,0.952,0.9532,0.9545,0.9566,0.9592,0.9585,0.9596,0.9596,0.9613,0.9646,0.9602,0.9603,0.9612,0.9688,0.9695,0.9702,0.9642,0.9643,0.9644,0.9687,0,0.9449,0.9489,0.949,0.9526,0.9545,0.954,0.956,0.9572,0.9577,0.9595,0.96,0.962,0.9608,0.9615,0.9631,0.9638,0.9661,0.9635,0.9662,0.9663,0.9661,0.9709,0.9717,0.9757,0.9693,0.9693,0.9694,0,0.9498,0.9513,0.9552,0.9567,0.9575,0.9592,0.9611,0.9627,0.9642,0.9645,0.9657,0.9655,0.968,0.9662,0.9697,0.9679,0.969,0.9695,0.9697,0.9701,0.9682,0.9716,0.9769,0.9776,0.9703,0.9702,0.9701,0,0.9528,0.9559,0.9587,0.9594,0.9611,0.9625,0.9632,0.9646,0.9658,0.9674,0.9682,0.9701,0.9712,0.9727,0.9731,0.9717,0.9765,0.9748,0.977,0.977,0.9781,0.9781,0.9839,0.9785,0.9785,0.9785,0.9785,0,0.9571,0.9595,0.9601,0.9618,0.9645,0.9647,0.9674,0.9681,0.9693,0.9712,0.9708,0.9726,0.9729,0.9748,0.975,0.9779,0.9784,0.9788,0.9788,0.9789,0.9789,0.9797,0.9796,0.9787,0.9786,0.9786,0.9786,0,0.961,0.9614,0.9645,0.9658,0.9663,0.9683,0.9695,0.9712,0.9717,0.9741,0.9747,0.9755,0.9777,0.9782,0.9808,0.981,0.9845,0.9842,0.984,0.984,0.9862,0.9861,0.9929,0.9939,0.9878,0.9878,0.9879,0,0.9637,0.9656,0.9672,0.9685,0.9693,0.9713,0.9726,0.9728,0.9741,0.976,0.9775,0.9797,0.9814,0.985,0.9859,0.9879,0.9878,0.9901,0.9881,0.9882,0.9881,0.988,0.9883,0.9905,0.9906,0.9906,0.9907,0,0.9686,0.9688,0.9706,0.9726,0.9741,0.9756,0.9771,0.9782,0.9786,0.9801,0.9824,0.9838,0.9865,0.9888,0.9908,0.9917,0.9913,0.9912,0.9919,0.9921,0.992,0.9922,0.9852,0.9911,0.9911,0.991,0.991,0.991,0.9722,0.9739,0.9753,0.9774,0.9786,0.98,0.9817,0.9824,0.9843,0.9866,0.9866,0.9891,0.9906,0.9934,0.9944,0.9964,0.9957,0.9966,0.9969,0.9971,0.9974,0.9915,0.9968,0.9968,0.9967,0.9967,0.9967,0,0.9772,0.9781,0.98,0.9822,0.9839,0.9833,0.9849,0.9864,0.9886,0.99,0.9918,0.9945,0.9967,0.9978,0.9999,1.0014,1.0013,1.002,1.002,1.0022,0.9978,0.9971,1.002,1.002,1.002,1.002,1.002,1.002,0.98,0.983,0.9833,0.9869,0.9878,0.9903,0.9913,0.9926,0.9938,0.9968,0.9987,0.9993,1.0006,1.0029,1.005,1.0052,1.0061,1.0069,1.0071,1.003,1.0025,1.002,1.0014,1.0071,1.0071,1.0114,1.0114,1.0114]},{"header":{"parameterUnit":"m.s-1","parameterCategory":1,"la1":30.2991,"la2":30.254,"lo1":-89.0895,"lo2":-89.0444,"dy":0.0017,"dx":0.0017,"nx":28,"ny":28,"refTime":"2024-12-08T09:00:00:Z","depth":0,"parameterNumber":3,"parameterNumberName":"V-component_of_WINDS"},"data":[0,0,0,0,0,0,0,0,0,0,0,0,0,0,0,0,0,0,0,0,0,0,0,0,0,0,0,0,0,0,0,0,0,0,0,0,0,0,0,0,0,0,0,0,0,0,0,0,0,0,0,0,0,0,0,0,0,0,3.5568,3.5569,0,3.5696,3.5697,3.5698,3.5697,3.5695,3.5693,3.5692,3.5822,3.5827,3.5832,0,0,0,0,0,0,0,0,0,0,0,0,0,3.5321,3.5326,3.5568,3.5569,3.5571,3.5695,3.5697,3.5699,3.5697,3.5695,3.5693,3.5691,3.582,3.5826,3.5832,0,0,0,0,0,0,0,0,0,0,0,0,0,3.5436,3.5327,3.5567,3.5585,3.5588,3.5695,3.5697,3.5699,3.5697,3.5695,3.5692,3.569,3.5818,3.5826,3.5833,3.5931,0,0,3.5856,3.586,0,0,0,0,0,0,0,0,3.543,3.5445,3.5581,3.5584,3.5587,3.5678,3.5658,3.5777,3.5698,3.5656,3.5691,3.5689,3.5776,3.5787,3.5816,3.5938,3.5943,3.5857,3.5862,3.5865,3.5867,0,0,0,0,0,0,0,3.5422,3.544,3.5618,3.5583,3.5587,3.5586,3.56,3.5681,3.5729,3.5659,3.5659,3.5675,3.5777,3.5809,3.582,3.5945,3.5857,3.5864,3.5868,3.5871,3.6154,3.6157,0,0,0,0,0,0,3.541,3.5433,3.5614,3.5622,3.5501,3.5593,3.5608,3.5651,3.5728,3.5737,3.5677,3.5674,3.5797,3.5811,3.5824,3.5946,3.5865,3.5872,3.5876,3.6151,3.6155,3.6158,0,0,0,0,0,0,3.5405,3.5426,3.5609,3.5528,3.5551,3.56,3.5648,3.5655,3.5687,3.5741,3.5749,3.5701,3.5796,3.5813,3.5905,3.595,3.5875,3.5882,3.6147,3.6152,3.6156,3.6189,0,0,0,0,0,0,3.5398,3.5425,3.5463,3.5529,3.5555,3.5688,3.5651,3.5659,3.57,3.5698,3.5766,3.5774,3.5795,3.5894,3.5913,3.5959,3.5888,3.6144,3.6149,3.6155,3.6184,3.6194,3.6202,0,0,0,0,0,3.5389,3.5466,3.5465,3.5487,3.5604,3.5691,3.5706,3.5729,3.5704,3.5743,3.5777,3.5772,3.5941,3.5903,3.5924,3.5974,3.6141,3.6148,3.6154,3.618,3.6192,3.6202,0,0,0,0,0,0,3.5405,3.5475,3.5474,3.5575,3.5627,3.569,3.574,3.5741,3.5801,3.5796,3.5821,3.5836,3.5928,3.596,3.5916,3.6073,3.6038,3.6049,3.605,3.6062,3.6071,3.6063,3.5895,0,0,0,0,0,3.5419,3.5484,3.5542,3.5626,3.5652,3.5691,3.573,3.5743,3.5798,3.582,3.5861,3.5914,3.5979,3.6022,3.6084,3.6187,3.6203,3.6231,3.6241,3.6248,3.6258,3.6316,3.633,3.6179,3.6179,3.6179,0,0,3.5452,3.5498,3.5538,3.563,3.5672,3.5739,3.571,3.5782,3.5832,3.583,3.592,3.5952,3.6013,3.6111,3.6156,3.614,3.6303,3.6256,3.6262,3.6268,3.6324,3.6338,3.6351,3.6184,3.6183,3.6182,0,0,3.5545,3.5586,3.5661,3.5703,3.5766,3.5792,3.581,3.5873,3.5895,3.5985,3.5986,3.6044,3.6156,3.62,3.6237,3.6345,3.6343,3.6364,3.6413,3.6469,3.6481,3.6492,3.6533,3.6547,3.6374,3.6374,3.6374,0,3.5577,3.5678,3.5699,3.5772,3.5813,3.5814,3.589,3.593,3.6011,3.6039,3.6019,3.616,3.62,3.6309,3.6336,3.6365,3.6387,3.6358,3.6478,3.6489,3.6499,3.6538,3.6553,3.6376,3.6376,3.6376,3.6376,0,3.5715,3.5785,3.5837,3.5916,3.5962,3.6036,3.6069,3.6113,3.6121,3.6149,3.6241,3.6289,3.6363,3.6389,3.6397,3.6499,3.6487,3.6472,3.6438,3.6515,3.6553,3.6568,3.638,3.6379,3.6378,3.6377,0,0,3.5824,3.5913,3.5932,3.5968,3.6037,3.6092,3.6165,3.6237,3.6276,3.633,3.6394,3.6487,3.6474,3.6515,3.6528,3.6577,3.6662,3.6556,3.6558,3.6577,3.678,3.6793,3.681,3.666,3.6663,3.6665,3.6775,0,3.5927,3.6058,3.6079,3.6195,3.6261,3.6262,3.6326,3.6375,3.6403,3.6462,3.6491,3.6558,3.6534,3.656,3.6608,3.6642,3.6704,3.6634,3.6721,3.6723,3.6709,3.6829,3.6843,3.6945,3.679,3.6792,3.6794,0,3.6065,3.6124,3.6247,3.6308,3.6336,3.6393,3.6461,3.6517,3.6573,3.6589,3.6636,3.6643,3.6719,3.6679,3.6785,3.6737,3.6773,3.6795,3.6799,3.6811,3.6766,3.6846,3.6977,3.6994,3.6817,3.6815,3.6813,0,3.6135,3.6245,3.6333,3.6363,3.6436,3.6477,3.6509,3.6562,3.6604,3.6663,3.669,3.6757,3.6794,3.6845,3.6869,3.6837,3.6974,3.6936,3.6991,3.6991,3.7023,3.7021,3.7165,3.7041,3.7041,3.704,3.704,0,3.6249,3.6325,3.6366,3.642,3.6505,3.6527,3.661,3.6641,3.6688,3.6749,3.6752,3.6809,3.6837,3.6897,3.6917,3.7003,3.7018,3.7035,3.7039,3.7036,3.7035,3.7063,3.7057,3.7045,3.7044,3.7043,3.7042,0,3.6344,3.6374,3.647,3.6531,3.6548,3.6608,3.666,3.6713,3.6739,3.6815,3.6834,3.6875,3.6947,3.6976,3.7063,3.7076,3.7176,3.7173,3.7157,3.716,3.7214,3.721,3.7383,3.7408,3.7265,3.7267,3.7268,0,3.6416,3.6474,3.6542,3.6583,3.6616,3.6682,3.6725,3.6748,3.6793,3.686,3.6905,3.6977,3.7036,3.715,3.7187,3.7254,3.7255,3.7311,3.7266,3.7261,3.726,3.7257,3.7264,3.7321,3.7322,3.7323,3.7324,0,3.6542,3.6554,3.6616,3.6684,3.6735,3.6789,3.6842,3.6875,3.6906,3.6956,3.703,3.7075,3.7164,3.7236,3.7304,3.7337,3.7337,3.7338,3.7355,3.7354,3.7343,3.7353,3.7184,3.7335,3.7334,3.7333,3.7332,3.7332,3.663,3.6683,3.6738,3.6807,3.6849,3.6898,3.6952,3.6984,3.7046,3.7121,3.713,3.7209,3.7263,3.7356,3.7391,3.7453,3.7439,3.7463,3.7469,3.7476,3.7481,3.7331,3.7465,3.7465,3.7465,3.7465,3.7464,0,3.6759,3.6795,3.6858,3.6932,3.6986,3.698,3.7037,3.7083,3.7153,3.7204,3.7261,3.7346,3.7415,3.7457,3.7527,3.7568,3.757,3.7586,3.7585,3.7593,3.7488,3.7468,3.7584,3.7584,3.7584,3.7584,3.7584,3.7584,3.6833,3.6922,3.694,3.705,3.7085,3.7163,3.7197,3.7242,3.7283,3.7377,3.7435,3.7462,3.7509,3.7582,3.7645,3.7655,3.7682,3.77,3.771,3.7612,3.76,3.7588,3.757,3.7705,3.7705,3.7809,3.781,3.7811]}]]